This is the latest recevied weather packets stored in our database for station/object VK3XEM-13. If no packets are shown the sender has not sent any weather packets the latest 10 day(s).
| Time | Temp. | Humidity | Pressure | Rain* | Wind** | Luminosity | Snow |
|---|---|---|---|---|---|---|---|
| 1778156235 | 9.44° C | 91% | 1019.8 hPa | 0 mm | - | 0 W/m² | - |
| 1778155335 | 8.89° C | 93% | 1019.8 hPa | 0 mm | - | 0 W/m² | - |
| 1778154435 | 8.89° C | 93% | 1020.2 hPa | 0 mm | - | 0 W/m² | - |
| 1778153534 | 8.89° C | 93% | 1019.8 hPa | 0.25 mm | - | 0 W/m² | - |
| 1778152635 | 8.89° C | 93% | 1019.8 hPa | 0.51 mm | - | 0 W/m² | - |
| 1778151734 | 8.89° C | 93% | 1020.2 hPa | 0.51 mm | - | 0 W/m² | - |
| 1778150835 | 8.89° C | 92% | 1020.2 hPa | 0.51 mm | - | 0 W/m² | - |
| 1778149934 | 8.89° C | 89% | 1020.5 hPa | 0.25 mm | - | 0 W/m² | - |
| 1778149035 | 9.44° C | 85% | 1020.5 hPa | 0 mm | - | 0 W/m² | - |
| 1778148134 | 10° C | 78% | 1020.5 hPa | 0 mm | - | 0 W/m² | - |
| 1778147235 | 10° C | 78% | 1020.2 hPa | 0 mm | - | 0 W/m² | - |
| 1778146334 | 10° C | 77% | 1020.2 hPa | 0 mm | - | 0 W/m² | - |
| 1778145435 | 10° C | 77% | 1020.2 hPa | 0 mm | - | 0 W/m² | - |
| 1778144534 | 10° C | 78% | 1020.2 hPa | 0 mm | - | 0 W/m² | - |
| 1778143635 | 10° C | 79% | 1019.8 hPa | 0 mm | - | 0 W/m² | - |
| 1778142734 | 10° C | 80% | 1019.8 hPa | 0 mm | - | 0 W/m² | - |
| 1778141834 | 10° C | 82% | 1019.8 hPa | 0 mm | - | 0 W/m² | - |
| 1778140935 | 10° C | 82% | 1019.8 hPa | 0 mm | - | 0 W/m² | - |
| 1778140035 | 9.44° C | 87% | 1019.5 hPa | 0 mm | - | 0 W/m² | - |
| 1778139134 | 9.44° C | 89% | 1019.5 hPa | 0 mm | - | 1 W/m² | - |
| 1778138234 | 9.44° C | 89% | 1019.5 hPa | 0 mm | - | 8 W/m² | - |
| 1778137336 | 9.44° C | 88% | 1019.5 hPa | 0.25 mm | - | 7 W/m² | - |
| 1778136435 | 9.44° C | 86% | 1019.5 hPa | 0.25 mm | - | 32 W/m² | - |
| 1778135534 | 9.44° C | 85% | 1019.5 hPa | 0.25 mm | - | 47 W/m² | - |
| 1778134634 | 9.44° C | 86% | 1019.8 hPa | 0.25 mm | - | 43 W/m² | - |
* Rain latest hour (hover to see other rain measurements)
** Current wind speed in m/s (hover to see current wind gust speed)